When you browse on this site, cookies collect data to enhance your experience and personalize the content and advertising you see.
Visit our Privacy Policy to learn more. By continuing to use the site, you agree to this use of cookies and data.
  • Em Portugal
  • Lista de países
  • Para 7 dias
  • Temperatura da água
  • Mapas de satélite
  • Mapa do tempo
  • Widgets de tempo
  • user-avatar
    Iniciar Sessão

    Previsão horária em Burgas

    Hoje, 18 Fevereiro, Segunda-feira

    Tempo Temperatura Precipitação Vento Pressão Humidade
    00:00 +7°C° 0 mm 2 m/s 766 mmHg 69%
    01:00 +6°C° 0 mm 2 m/s 766 mmHg 69%
    02:00 +7°C° 0 mm 1 m/s 766 mmHg 69%
    03:00 +7°C° 0 mm 1 m/s 766 mmHg 69%
    04:00 +6°C° 0 mm 2 m/s 766 mmHg 68%
    05:00 +6°C° 0 mm 2 m/s 766 mmHg 68%
    06:00 +6°C° 0 mm 2 m/s 766 mmHg 68%
    07:00 +6°C° 0 mm 2 m/s 766 mmHg 68%
    08:00 +6°C° 0 mm 2 m/s 766 mmHg 68%
    09:00 +8°C° 0 mm 2 m/s 766 mmHg 63%
    10:00 +10°C° 0 mm 2 m/s 766 mmHg 58%
    11:00 +13°C° 0 mm 2 m/s 767 mmHg 52%
    12:00 +13°C° 0 mm 2 m/s 766 mmHg 50%
    13:00 +14°C° 0 mm 2 m/s 766 mmHg 48%
    14:00 +15°C° 0 mm 2 m/s 766 mmHg 46%
    15:00 +14°C° 0 mm 2 m/s 766 mmHg 51%
    16:00 +14°C° 0 mm 2 m/s 766 mmHg 56%
    17:00 +12°C° 0 mm 3 m/s 766 mmHg 60%
    18:00 +11°C° 0 mm 3 m/s 766 mmHg 68%
    19:00 +9°C° 0 mm 2 m/s 766 mmHg 75%
    20:00 +8°C° 0 mm 2 m/s 766 mmHg 82%
    21:00 +8°C° 0 mm 2 m/s 766 mmHg 84%
    22:00 +7°C° 0 mm 2 m/s 766 mmHg 86%
    23:00 +8°C° 0 mm 1 m/s 766 mmHg 88%

    Amanhã, 19 Fevereiro, Terça-feira

    Tempo Temperatura Precipitação Vento Pressão Humidade
    00:00 +8°C° 0 mm 1 m/s 767 mmHg 89%
    01:00 +8°C° 0 mm 1 m/s 767 mmHg 90%
    02:00 +7°C° 0 mm 1 m/s 767 mmHg 90%
    03:00 +7°C° 0 mm 1 m/s 767 mmHg 91%
    04:00 +7°C° 0 mm 1 m/s 766 mmHg 91%
    05:00 +7°C° 0 mm 1 m/s 766 mmHg 91%
    06:00 +7°C° 0 mm 1 m/s 766 mmHg 91%
    07:00 +7°C° 0 mm 1 m/s 766 mmHg 91%
    08:00 +7°C° 0 mm 1 m/s 767 mmHg 91%
    09:00 +8°C° 0 mm 2 m/s 767 mmHg 84%
    10:00 +9°C° 0 mm 2 m/s 767 mmHg 76%
    11:00 +11°C° 0 mm 3 m/s 767 mmHg 69%
    12:00 +12°C° 0 mm 3 m/s 766 mmHg 66%
    13:00 +12°C° 0 mm 3 m/s 766 mmHg 63%
    14:00 +13°C° 0 mm 3 m/s 765 mmHg 60%
    15:00 +12°C° 0 mm 3 m/s 765 mmHg 64%
    16:00 +12°C° 0 mm 4 m/s 765 mmHg 68%
    17:00 +11°C° 0 mm 4 m/s 765 mmHg 71%
    18:00 +10°C° 0 mm 4 m/s 765 mmHg 77%
    19:00 +9°C° 0 mm 3 m/s 765 mmHg 82%
    20:00 +8°C° 0 mm 3 m/s 765 mmHg 88%
    21:00 +7°C° 0 mm 3 m/s 765 mmHg 88%
    22:00 +7°C° 0 mm 2 m/s 765 mmHg 88%
    23:00 +7°C° 0 mm 2 m/s 764 mmHg 89%

    Depois de amanhã, 20 Fevereiro, Quarta-feira

    Tempo Temperatura Precipitação Vento Pressão Humidade
    00:00 +7°C° 0 mm 2 m/s 764 mmHg 89%
    01:00 +8°C° 0 mm 1 m/s 764 mmHg 89%
    02:00 +7°C° 0 mm 1 m/s 764 mmHg 89%
    03:00 +7°C° 0 mm 1 m/s 764 mmHg 89%
    04:00 +7°C° 0 mm 1 m/s 763 mmHg 89%
    05:00 +7°C° 0 mm 1 m/s 763 mmHg 89%
    06:00 +7°C° 0 mm 1 m/s 763 mmHg 88%
    07:00 +6°C° 0 mm 2 m/s 763 mmHg 86%
    08:00 +6°C° 0 mm 2 m/s 763 mmHg 85%
    09:00 +8°C° 0 mm 2 m/s 763 mmHg 77%
    10:00 +10°C° 0 mm 2 m/s 763 mmHg 69%
    11:00 +12°C° 0 mm 3 m/s 763 mmHg 61%
    12:00 +13°C° 0 mm 3 m/s 763 mmHg 57%
    13:00 +15°C° 0 mm 2 m/s 763 mmHg 53%
    14:00 +17°C° 0 mm 2 m/s 762 mmHg 49%
    15:00 +16°C° 0 mm 2 m/s 762 mmHg 51%
    16:00 +16°C° 0 mm 2 m/s 762 mmHg 52%
    17:00 +15°C° 0 mm 2 m/s 762 mmHg 54%
    18:00 +14°C° 0 mm 2 m/s 762 mmHg 57%
    19:00 +13°C° 0 mm 2 m/s 763 mmHg 59%
    20:00 +12°C° 0 mm 2 m/s 763 mmHg 62%
    21:00 +10°C° 0 mm 2 m/s 763 mmHg 64%
    22:00 +10°C° 0 mm 2 m/s 764 mmHg 65%
    23:00 +9°C° 0 mm 3 m/s 764 mmHg 67%

    21 Fevereiro, Quinta-feira

    Tempo Temperatura Precipitação Vento Pressão Humidade
    00:00 +9°C° 0 mm 3 m/s 764 mmHg 68%
    01:00 +8°C° 0 mm 3 m/s 764 mmHg 69%
    02:00 +8°C° 0 mm 3 m/s 765 mmHg 70%
    03:00 +7°C° 0 mm 3 m/s 765 mmHg 71%
    04:00 +7°C° 0 mm 3 m/s 765 mmHg 71%
    05:00 +5°C° 0 mm 3 m/s 765 mmHg 72%
    06:00 +5°C° 0 mm 3 m/s 766 mmHg 72%
    07:00 +5°C° 0 mm 3 m/s 766 mmHg 73%
    08:00 +6°C° 0 mm 2 m/s 767 mmHg 73%
    09:00 +8°C° 0 mm 2 m/s 767 mmHg 69%
    10:00 +9°C° 0 mm 2 m/s 767 mmHg 64%
    11:00 +10°C° 0 mm 2 m/s 768 mmHg 60%
    12:00 +12°C° 0 mm 1 m/s 767 mmHg 58%
    13:00 +13°C° 0 mm 1 m/s 767 mmHg 56%
    14:00 +13°C° 0 mm 1 m/s 767 mmHg 54%
    15:00 +13°C° 0 mm 1 m/s 767 mmHg 56%
    16:00 +13°C° 0 mm 2 m/s 766 mmHg 59%
    17:00 +12°C° 0 mm 2 m/s 766 mmHg 61%
    18:00 +10°C° 0 mm 2 m/s 766 mmHg 67%
    19:00 +9°C° 0 mm 2 m/s 767 mmHg 73%
    20:00 +8°C° 0 mm 2 m/s 767 mmHg 79%
    21:00 +9°C° 0 mm 1 m/s 767 mmHg 80%
    22:00 +8°C° 0 mm 1 m/s 767 mmHg 81%
    23:00 +8°C° 0 mm 1 m/s 767 mmHg 82%

    22 Fevereiro, Sexta-feira

    Tempo Temperatura Precipitação Vento Pressão Humidade
    00:00 +8°C° 0 mm 1 m/s 767 mmHg 81%
    01:00 +8°C° 0 mm 1 m/s 767 mmHg 80%
    02:00 +8°C° 0 mm 1 m/s 766 mmHg 80%
    03:00 +6°C° 0 mm 2 m/s 766 mmHg 80%
    04:00 +6°C° 0 mm 2 m/s 766 mmHg 79%
    05:00 +6°C° 0 mm 2 m/s 765 mmHg 79%
    06:00 +6°C° 0 mm 2 m/s 765 mmHg 79%
    07:00 +6°C° 0 mm 2 m/s 765 mmHg 78%
    08:00 +6°C° 0 mm 2 m/s 765 mmHg 77%
    09:00 +8°C° 0 mm 2 m/s 765 mmHg 70%
    10:00 +10°C° 0 mm 3 m/s 765 mmHg 62%
    11:00 +11°C° 0 mm 3 m/s 765 mmHg 54%
    12:00 +11°C° 0.1 mm 3 m/s 765 mmHg 55%
    13:00 +12°C° 0.1 mm 4 m/s 765 mmHg 56%
    14:00 +12°C° 0.1 mm 4 m/s 764 mmHg 57%
    15:00 +11°C° 0.3 mm 4 m/s 764 mmHg 62%
    16:00 +10°C° 0.3 mm 4 m/s 765 mmHg 68%
    17:00 +8°C° 0.3 mm 4 m/s 765 mmHg 73%
    18:00 +8°C° 0.2 mm 5 m/s 765 mmHg 75%
    19:00 +7°C° 0.2 mm 6 m/s 766 mmHg 76%
    20:00 +7°C° 0.2 mm 6 m/s 767 mmHg 78%
    21:00 +4°C° 0.2 mm 7 m/s 767 mmHg 74%
    22:00 +2°C° 0.2 mm 8 m/s 768 mmHg 70%
    23:00 +1°C° 0.2 mm 9 m/s 769 mmHg 66%

    23 Fevereiro, Sábado

    Tempo Temperatura Precipitação Vento Pressão Humidade
    00:00 0°C° 0 mm 9 m/s 770 mmHg 65%
    01:00 -1°C° 0 mm 9 m/s 771 mmHg 63%
    02:00 -3°C° 0 mm 9 m/s 772 mmHg 62%
    03:00 -4°C° 0 mm 9 m/s 772 mmHg 60%
    04:00 -4°C° 0 mm 9 m/s 773 mmHg 58%
    05:00 -5°C° 0 mm 9 m/s 774 mmHg 56%
    06:00 -6°C° 0 mm 9 m/s 774 mmHg 53%
    07:00 -6°C° 0 mm 9 m/s 775 mmHg 50%
    08:00 -6°C° 0 mm 9 m/s 776 mmHg 48%
    09:00 -5°C° 0 mm 9 m/s 776 mmHg 45%
    10:00 -5°C° 0 mm 9 m/s 776 mmHg 42%
    11:00 -4°C° 0 mm 9 m/s 777 mmHg 38%
    12:00 -3°C° 0 mm 9 m/s 776 mmHg 36%
    13:00 -2°C° 0 mm 8 m/s 776 mmHg 34%
    14:00 -1°C° 0 mm 8 m/s 776 mmHg 31%
    15:00 -1°C° 0 mm 8 m/s 776 mmHg 32%
    16:00 -1°C° 0 mm 8 m/s 776 mmHg 33%
    17:00 -2°C° 0 mm 7 m/s 776 mmHg 33%
    18:00 -2°C° 0 mm 7 m/s 776 mmHg 36%
    19:00 -3°C° 0 mm 6 m/s 776 mmHg 38%
    20:00 -2°C° 0 mm 5 m/s 776 mmHg 40%
    21:00 -2°C° 0 mm 5 m/s 775 mmHg 40%
    22:00 -2°C° 0 mm 5 m/s 775 mmHg 40%
    23:00 -2°C° 0 mm 4 m/s 775 mmHg 40%
    Mostrar mais